Weather in Latchi

Cyprus     35°01′40″N   32°25′00″E
temp.,
°C
wind,
m/s
gust,
m/s
humid.,
%
clouds,
%
prec.,
mm/h
press.,
hPa
HPBL,
m
14 april, wed
wed1400:00+9ene11690 0.0 102122
03:00+8ese11694 0.0 102017
06:00+9sse2264100 0.0 102019
09:00+14ssw124549 0.0 1021485
12:00+18w22395 0.0 10201141
15:00+18w32462 0.0 1019981
18:00+16w22525 0.0 1019561
21:00+11nne117435 0.0 102024
15 april, thu
thu1500:00+11ne1172100 0.0 101923
03:00+10e11674 0.0 101823
06:00+10se11674 0.0 101817
09:00+17w11415 0.0 1018372
12:00+19wnw324312 0.0 1019805
15:00+20wnw32430 0.0 1017784
18:00+18wnw214911 0.0 1016340
21:00+14ese1167100 0.0 101711
16 april, fri
fri1600:00+14wnw0058100 0.0 101611
03:00+13ne1155100 0.0 101512
06:00+14e1146100 0.0 101513
09:00+19sw1131100 0.0 1016283
12:00+22w2331100 0.0 1016913
15:00+22wnw33325 0.0 1016931
18:00+20nw32423 0.0 1016344
21:00+15n225564 0.0 101711
17 april, sat
sat1700:00+15ene2251100 0.0 101611
03:00+14nne11483 0.0 101513
06:00+14e014232 0.0 101511
09:00+20n113878 0.0 1017265
12:00+25nw2127100 0.0 1016786
15:00+25wnw3232100 0.0 1015702
18:00+23w113887 0.0 1015277
21:00+18nne2254100 0.0 101711
18 april, sun
sun1800:00+19ne1149100 0.0 101712
03:00+21ese3337100 0.0 101419
06:00+18nne123885 0.0 101511
09:00+22nne2241100 0.0 1017163
12:00+28nw2228100 0.0 1017583
15:00+27nnw3328100 0.0 1016517
18:00+26nnw1233100 0.0 1015120
21:00+22se1240100 0.0 101514